Location: Observatoire
(46.1952°N, 5.3391°E)
Time: 05:28:38
(UTC+02:00)

ITAMSAT 1 - Pass Details

Date: 30 April 2024
Orbit: 782 x 796 km, 98.8° (Epoch: 24 May)

Event Time Altitude Azimuth Distance (km) Brightness Sun altitude
Exits shadow 21:56:34 - 165° (SSE) 2,556 9.8 -11.4°
Reaches altitude 10° 21:57:04 10° 165° (SSE) 2,359 9.7 -11.4°
Maximum altitude 22:02:18 88° 256° (WSW) 802 7.7 -12.1°
Drops below altitude 10° 22:07:33 10° 345° (NNW) 2,372 11.0 -12.9°
Sets 22:09:53 0° 346° (NNW) 3,304 11.8 -13.2°
